| time (UTC) | temp F | wind direction | speed MPH | gust MPH | rain 1hr in | rain 24hr in | rain mn in | humidity % | barometer mb |
| 20260510160055 | 61 | 347 | 5.0 | 11.0 | 0.00 | 0.00 | 0.00 | 33 | 1021.0 |
| 20260510154548 | 61 | 340 | 4.0 | 11.0 | 0.00 | 0.00 | 0.00 | 32 | 1020.9 |
| 20260510153038 | 60 | 296 | 5.0 | 11.0 | 0.00 | 0.00 | 0.00 | 34 | 1020.6 |
| 20260510151535 | 59 | 240 | 5.0 | 11.0 | 0.00 | 0.00 | 0.00 | 35 | 1020.8 |
| 20260510150036 | 59 | 13 | 2.0 | 11.0 | 0.00 | 0.00 | 0.00 | 38 | 1020.6 |
| 20260510144529 | 58 | 238 | 2.0 | 5.0 | 0.00 | 0.00 | 0.00 | 42 | 1020.7 |
| 20260510143034 | 57 | 1 | 0.0 | 8.0 | 0.00 | 0.00 | 0.00 | 48 | 1020.8 |
| 20260510141522 | 54 | 297 | 0.0 | 4.0 | 0.00 | 0.00 | 0.00 | 50 | 1020.8 |
| 20260510140018 | 53 | 27 | 0.0 | 3.0 | 0.00 | 0.00 | 0.00 | 53 | 1020.8 |
| 20260510134515 | 52 | 32 | 1.0 | 3.0 | 0.00 | 0.00 | 0.00 | 53 | 1020.6 |
| 20260510133010 | 50 | 12 | 0.0 | 3.0 | 0.00 | 0.00 | 0.00 | 57 | 1020.7 |
| 20260510131506 | 48 | 16 | 1.0 | 4.0 | 0.00 | 0.00 | 0.00 | 60 | 1020.6 |
| 20260510130004 | 46 | 27 | 0.0 | 3.0 | 0.00 | 0.00 | 0.00 | 63 | 1020.7 |
| 20260510124500 | 43 | 34 | 0.0 | 4.0 | 0.00 | 0.00 | 0.00 | 66 | 1020.6 |
| 20260510123104 | 41 | 36 | 1.0 | 3.0 | 0.00 | 0.00 | 0.00 | 69 | 1020.3 |
| 20260510121559 | 38 | 11 | 0.0 | 1.0 | 0.00 | 0.00 | 0.00 | 74 | 1020.1 |
| 20260510120055 | 36 | 11 | 0.0 | 1.0 | 0.00 | 0.00 | 0.00 | 77 | 1019.9 |
| 20260510114554 | 35 | 11 | 0.0 | 1.0 | 0.00 | 0.00 | 0.00 | 76 | 1019.8 |
| 20260510113101 | 34 | 11 | 0.0 | 0.0 | 0.00 | 0.00 | 0.00 | 77 | 1019.4 |
| 20260510111606 | 34 | 11 | 0.0 | 0.0 | 0.00 | 0.00 | 0.00 | 77 | 1019.5 |
| 20260510110048 | 35 | 11 | 0.0 | 0.0 | 0.00 | 0.00 | 0.00 | 74 | 1019.4 |
| 20260510104601 | 36 | 11 | 0.0 | 0.0 | 0.00 | 0.00 | 0.00 | 70 | 1019.3 |
| 20260510103043 | 38 | 11 | 0.0 | 1.0 | 0.00 | 0.00 | 0.00 | 68 | 1019.2 |
| 20260510101541 | 38 | 11 | 0.0 | 2.0 | 0.00 | 0.00 | 0.00 | 67 | 1019.0 |
| 20260510100041 | 37 | 11 | 0.0 | 1.0 | 0.00 | 0.00 | 0.00 | 68 | 1019.0 |
| 20260510094545 | 38 | 11 | 0.0 | 0.0 | 0.00 | 0.00 | 0.00 | 67 | 1018.9 |
| 20260510093037 | 37 | 11 | 0.0 | 1.0 | 0.00 | 0.00 | 0.00 | 70 | 1018.7 |
| 20260510091550 | 37 | 11 | 0.0 | 0.0 | 0.00 | 0.00 | 0.00 | 70 | 1018.7 |
| 20260510090038 | 37 | 11 | 0.0 | 1.0 | 0.00 | 0.00 | 0.00 | 68 | 1018.5 |
| 20260510084539 | 36 | 11 | 0.0 | 1.0 | 0.00 | 0.00 | 0.00 | 70 | 1018.4 |
| 20260510083033 | 37 | 11 | 0.0 | 0.0 | 0.00 | 0.00 | 0.00 | 68 | 1018.1 |
| 20260510081538 | 38 | 11 | 0.0 | 0.0 | 0.00 | 0.00 | 0.00 | 66 | 1017.8 |
| 20260510080036 | 39 | 11 | 0.0 | 1.0 | 0.00 | 0.00 | 0.00 | 65 | 1017.5 |
| 20260510074530 | 39 | 11 | 0.0 | 2.0 | 0.00 | 0.00 | 0.00 | 64 | 1017.2 |
| 20260510073035 | 38 | 11 | 0.0 | 1.0 | 0.00 | 0.00 | 0.00 | 65 | 1017.1 |
| 20260510071534 | 36 | 11 | 0.0 | 0.0 | 0.00 | 0.00 | 0.00 | 68 | 1017.1 |
| 20260510070025 | 38 | 11 | 0.0 | 0.0 | 0.00 | 0.00 | 0.00 | 66 | 1017.0 |
| 20260510064545 | 38 | 11 | 0.0 | 0.0 | 0.00 | 0.00 | 0.00 | 66 | 1016.8 |
| 20260510063018 | 40 | 11 | 0.0 | 0.0 | 0.00 | 0.00 | 0.00 | 62 | 1016.6 |
| 20260510061515 | 42 | 11 | 0.0 | 0.0 | 0.00 | 0.00 | 0.00 | 56 | 1016.4 |
| 20260510060024 | 44 | 11 | 0.0 | 1.0 | 0.00 | 0.00 | 0.00 | 53 | 1016.1 |
| 20260510054506 | 45 | 11 | 1.0 | 3.0 | 0.00 | 0.00 | 0.00 | 51 | 1015.8 |
| 20260510053004 | 43 | 354 | 0.0 | 2.0 | 0.00 | 0.00 | 0.00 | 54 | 1015.5 |
| 20260510051609 | 44 | 354 | 0.0 | 0.0 | 0.00 | 0.00 | 0.00 | 53 | 1015.3 |
| 20260510050110 | 45 | 354 | 0.0 | 0.0 | 0.00 | 0.00 | 0.00 | 51 | 1015.2 |
| 20260510044604 | 46 | 354 | 0.0 | 1.0 | 0.00 | 0.00 | 0.00 | 49 | 1015.1 |
| 20260510043054 | 47 | 354 | 0.0 | 3.0 | 0.00 | 0.00 | 0.00 | 47 | 1014.9 |
| 20260510041603 | 48 | 19 | 0.0 | 2.0 | 0.00 | 0.00 | 0.00 | 47 | 1014.8 |
| 20260510040051 | 48 | 19 | 0.0 | 4.0 | 0.00 | 0.00 | 0.00 | 46 | 1014.5 |
| 20260510034557 | 49 | 1 | 1.0 | 4.0 | 0.00 | 0.00 | 0.00 | 45 | 1014.3 |
| 20260510033048 | 49 | 14 | 1.0 | 5.0 | 0.00 | 0.00 | 0.00 | 45 | 1014.1 |
| 20260510031550 | 50 | 4 | 0.0 | 3.0 | 0.00 | 0.00 | 0.00 | 44 | 1014.0 |
| 20260510030053 | 51 | 1 | 0.0 | 3.0 | 0.00 | 0.00 | 0.00 | 43 | 1013.8 |
| 20260510024549 | 52 | 5 | 1.0 | 5.0 | 0.00 | 0.00 | 0.00 | 41 | 1013.5 |
| 20260510023040 | 53 | 23 | 1.0 | 4.0 | 0.00 | 0.00 | 0.00 | 41 | 1013.2 |
| 20260510021539 | 54 | 359 | 0.0 | 3.0 | 0.00 | 0.00 | 0.00 | 40 | 1012.8 |
| 20260510020035 | 55 | 354 | 0.0 | 3.0 | 0.00 | 0.00 | 0.00 | 38 | 1012.4 |
| 20260510014533 | 57 | 16 | 0.0 | 4.0 | 0.00 | 0.00 | 0.00 | 37 | 1012.0 |
| 20260510013030 | 58 | 23 | 1.0 | 6.0 | 0.00 | 0.00 | 0.00 | 36 | 1011.7 |
| 20260510011528 | 59 | 32 | 4.0 | 8.0 | 0.00 | 0.00 | 0.00 | 34 | 1011.4 |
| 20260510010025 | 61 | 35 | 3.0 | 7.0 | 0.00 | 0.00 | 0.00 | 33 | 1010.9 |
| 20260510004524 | 62 | 23 | 5.0 | 11.0 | 0.00 | 0.00 | 0.00 | 32 | 1010.6 |
| 20260510003021 | 63 | 26 | 4.0 | 12.0 | 0.00 | 0.00 | 0.00 | 31 | 1010.5 |
| 20260510001519 | 63 | 11 | 6.0 | 13.0 | 0.00 | 0.00 | 0.00 | 30 | 1010.3 |
| 20260510000017 | 64 | 4 | 6.0 | 12.0 | 0.00 | 0.00 | 0.00 | 31 | 1010.0 |
| 20260509234529 | 65 | 320 | 6.0 | 12.0 | 0.00 | 0.00 | 0.00 | 30 | 1010.1 |
| 20260509233029 | 65 | 46 | 6.0 | 13.0 | 0.00 | 0.00 | 0.00 | 30 | 1009.7 |
| 20260509231513 | 65 | 356 | 7.0 | 12.0 | 0.00 | 0.00 | 0.00 | 30 | 1009.4 |
| 20260509230011 | 66 | 25 | 5.0 | 13.0 | 0.00 | 0.00 | 0.00 | 32 | 1009.3 |
| 20260509224513 | 67 | 343 | 5.0 | 15.0 | 0.00 | 0.00 | 0.00 | 30 | 1009.3 |
| 20260509223006 | 67 | 323 | 9.0 | 16.0 | 0.00 | 0.00 | 0.00 | 29 | 1008.9 |
| 20260509221505 | 68 | 37 | 8.0 | 16.0 | 0.00 | 0.00 | 0.00 | 30 | 1008.7 |
| 20260509220005 | 68 | 34 | 11.0 | 17.0 | 0.00 | 0.00 | 0.00 | 31 | 1008.5 |
| 20260509214502 | 68 | 355 | 10.0 | 16.0 | 0.00 | 0.00 | 0.00 | 32 | 1008.3 |
| 20260509213100 | 68 | 317 | 6.0 | 16.0 | 0.00 | 0.00 | 0.00 | 35 | 1008.1 |
| 20260509211602 | 69 | 333 | 7.0 | 19.0 | 0.00 | 0.00 | 0.00 | 36 | 1008.1 |
| 20260509210110 | 69 | 23 | 9.0 | 16.0 | 0.00 | 0.00 | 0.00 | 33 | 1008.1 |
| 20260509204556 | 70 | 34 | 8.0 | 17.0 | 0.00 | 0.00 | 0.00 | 34 | 1008.0 |
| 20260509203056 | 69 | 343 | 6.0 | 19.0 | 0.00 | 0.00 | 0.00 | 35 | 1007.8 |
| 20260509201600 | 70 | 54 | 10.0 | 17.0 | 0.00 | 0.00 | 0.00 | 34 | 1007.8 |
| 20260509194551 | 70 | 281 | 9.0 | 17.0 | 0.00 | 0.00 | 0.00 | 36 | 1007.4 |
| 20260509193053 | 70 | 337 | 8.0 | 17.0 | 0.00 | 0.00 | 0.00 | 37 | 1007.1 |
| 20260509191546 | 70 | 297 | 6.0 | 20.0 | 0.00 | 0.00 | 0.00 | 39 | 1007.0 |
| 20260509190049 | 70 | 316 | 8.0 | 16.0 | 0.00 | 0.00 | 0.00 | 40 | 1007.0 |
| 20260509184546 | 70 | 44 | 5.0 | 17.0 | 0.00 | 0.00 | 0.00 | 43 | 1006.8 |
| 20260509183042 | 69 | 262 | 6.0 | 13.0 | 0.00 | 0.00 | 0.00 | 47 | 1006.9 |
| 20260509181540 | 69 | 300 | 4.0 | 12.0 | 0.00 | 0.00 | 0.00 | 51 | 1006.9 |
| 20260509180039 | 68 | 304 | 6.0 | 12.0 | 0.00 | 0.00 | 0.00 | 49 | 1006.9 |
| 20260509174537 | 67 | 306 | 4.0 | 14.0 | 0.00 | 0.00 | 0.00 | 51 | 1006.9 |
| 20260509173031 | 65 | 96 | 8.0 | 17.0 | 0.00 | 0.00 | 0.00 | 53 | 1006.9 |
| 20260509171536 | 65 | 4 | 6.0 | 14.0 | 0.00 | 0.00 | 0.00 | 51 | 1006.9 |
| 20260509170009 | 65 | 345 | 10.0 | 18.0 | 0.00 | 0.00 | 0.00 | 50 | 1006.7 |
| 20260509164506 | 65 | 304 | 6.0 | 14.0 | 0.00 | 0.00 | 0.00 | 50 | 1006.8 |
| 20260509163005 | 65 | 348 | 4.0 | 9.0 | 0.00 | 0.00 | 0.00 | 49 | 1006.9 |
| 20260509161509 | 65 | 278 | 3.0 | 12.0 | 0.00 | 0.00 | 0.00 | 50 | 1007.0 |